Starlink 33745

operational
NORAD ID: 63714 Int'l Des: 2025-087 Owner: SPXS Country: US Constellation: starlink
LEOCIRCULAR

Starlink 33745について

説明を読み込み中...

リアルタイム位置

3D地球を読み込み中...

次回通過

高度履歴

Altitude vs Time

uPlot chart will show altitude changes over time

軌道要素

1 63714U 25087T 25351.66106457 .00017878 00000-0 61421-3 0 9992
2 63714 53.1586 240.3612 0001623 105.7088 254.4092 15.30203100 36640
Epoch: Dec 17, 2025 • Age: 19 hours

現在のステータス

高度 480.7 km
速度 7.63 km/s
衛星直下点 -17.70°S, 23°W
打ち上げ日 Apr 28, 2025
運用期間 0.6 years
タイプ internet

技術仕様

分類 Payload
質量 575.00 kg
乾燥質量 530.00 kg
総質量 575.00 kg
長さ 0.30 m
直径 4.10 m
スパン 29.00 m
形状 Box + pan
製造者 SPXS
バスタイプ Starlink V2MO
フェーズステータス In Orbit
所有者/国 SPXS/US

大規模コンステレーション

Loading constellations...